Flag for U.S.A. Weather past 2 weeks in Honolulu, Hawaii, U.S.A.

Now
80 °F

Broken clouds.


Feels Like: 80 °F
Forecast: 66 / 76 °F
Wind: No wind

Location: Honolulu International Airport

Current Time: May 25, 2015 at 12:48:18 PM

Latest Report: May 25, 2015 at 11:53 AM


Visibility: 10 mi

Pressure: 29.97 "Hg

Humidity: 45%

Dew point: 57 °F

Location of HonoluluLocation

Historic Weather in Honolulu — Graph

°F

Honolulu temperature yesterday

Maximum temperature yesterday: 80 °F (at 11:53 AM)
Minimum temperature yesterday: 71 °F (at 11:53 PM)
Average temperature yesterday: 75 °F

Past Weeks' High & Low Weather Summary

 TemperatureHumidityPressure
High84 °F (May 19, 10:53 AM)100% (May 16, 5:53 AM)30.17 "Hg (May 16, 5:53 AM)
Low61 °F (May 16, 5:53 AM)41% (May 25, 9:53 AM)29.92 "Hg (May 21, 5:53 PM)
Average76 °F65%30.05 "Hg
* Reported May 10 10:53 AM — May 25 10:53 AM, Honolulu, Weather by CustomWeather, © 2015

Note: Actual official high and low records may vary slightly from our data, if they occured in-between our weather recording intervals... More about our weather records

Advertising

Honolulu weather history for previous 24 hours

 ConditionsComfort  
Time TempWeatherWind HumidityBarometerVisibility
10:53 AM
Mon, May 25
79 °FPartly sunny.8 mph47%29.98 "Hg10 mi
9:53 AM80 °FScattered clouds.12 mph41%29.99 "Hg10 mi
8:53 AM77 °FScattered clouds.8 mph52%30.00 "Hg10 mi
7:53 AM74 °FScattered clouds.6 mph64%30.00 "Hg10 mi
6:53 AM69 °FScattered clouds.6 mph76%29.98 "Hg10 mi
5:53 AM69 °FScattered clouds.6 mph73%29.97 "Hg10 mi
4:53 AM68 °FPassing clouds.7 mph76%29.98 "Hg10 mi
3:53 AM70 °FPassing clouds.6 mph71%29.98 "Hg10 mi
2:53 AM70 °FPartly cloudy.7 mph73%29.98 "Hg10 mi
1:53 AM70 °FPartly cloudy.7 mph73%30.00 "Hg10 mi
12:53 AM70 °FPartly cloudy.10 mph71%30.02 "Hg10 mi
11:53 PM
Sun, May 24
71 °FPartly cloudy.5 mph63%30.04 "Hg10 mi
10:53 PM72 °FPartly cloudy.8 mph64%30.06 "Hg10 mi
9:53 PM74 °FMostly cloudy.9 mph57%30.06 "Hg10 mi
8:53 PM73 °FMostly cloudy.6 mph62%30.05 "Hg10 mi
7:53 PM74 °FPassing clouds.7 mph57%30.04 "Hg10 mi
6:53 PM75 °FPartly sunny.6 mph55%30.02 "Hg10 mi
5:53 PM76 °FPartly sunny.12 mph52%30.01 "Hg10 mi
4:53 PM75 °FBroken clouds.12 mph58%30.01 "Hg10 mi
3:53 PM76 °FBroken clouds.13 mph56%30.00 "Hg10 mi
2:53 PM77 °FBroken clouds.12 mph56%30.01 "Hg10 mi
1:53 PM79 °FBroken clouds.9 mph50%30.02 "Hg10 mi
12:53 PM80 °FBroken clouds.12 mph47%30.04 "Hg10 mi
Weather by CustomWeather, © 2015

See weather overviewHow to use our weather pages